Back to catalog

YAOGAN-43 O1D

AliveMilitaryVLEO
NORAD 60461·PAYLOAD·🇨🇳 China

Launched Aug 16, 2024 from Xichang Satellite Launch Center

Loading…

Next Passes (next 24 hours)

TLE

FreshSource: Space-Track

Epoch: Sep 14, 2026, 13:34 UTC

1 60461U 24148D   26257.56596054  .00005950  00000-0  19544-3 0  9993
2 60461  35.0048 300.0420 0002385 305.1038  54.9456 15.30889068115981

Track YAOGAN-43 O1D in real time with AllMySat

Download on the App Store